Theta_e
350 349 349 350 352 352 347 350 345 335 337 344 346 355 355 356 357 357 357 350 347 347 345 345 347 349 351 353 353 354 356 355 354 354 354 355 356 358
349 352 351 351 351 352 353 349 347 339 336 345 346 351 354 352 356 358 358 352 348 345 343 343 344 346 348 350 350 350 351 352 351 350 350 351 351 352
337 342 344 346 346 347 349 349 346 345 338 341 346 350 353 354 355 357 357 356 355 344 343 342 341 342 344 346 346 346 348 348 348 348 349 348 348 349
330 331 335 338 342 345 345 346 346 349 344 340 347 348 350 353 355 355 354 353 354 347 341 340 339 339 339 339 340 341 341 342 344 344 345 346 347 347
330 330 329 331 334 339 342 343 343 345 347 344 342 350 350 350 346 347 348 353 353 348 338 338 338 337 336 335 335 334 334 335 336 336 338 340 343 345
326 325 329 329 329 333 336 341 344 344 342 341 340 340 342 347 346 342 343 350 352 351 347 343 343 339 336 334 333 333 329 329 329 329 331 333 336 339
325 327 329 331 330 332 335 336 339 341 343 343 339 339 339 340 341 343 346 350 355 359 349 350 352 348 349 336 343 337 331 329 327 326 326 327 328 331
321 323 326 329 329 329 328 329 332 333 334 339 340 339 340 342 341 341 338 337 335 348 350 346 351 348 351 348 341 337 332 330 327 326 324 324 325 325
318 318 320 323 324 320 323 326 332 331 333 336 335 340 344 345 349 343 341 340 339 343 350 343 350 348 350 347 336 333 332 329 328 327 326 324 323 322
316 314 314 315 318 318 319 323 328 332 334 335 333 337 344 348 349 348 344 345 345 345 354 340 346 346 349 349 336 333 329 327 326 324 323 321 319 317
315 315 316 316 315 316 317 316 322 327 328 328 328 328 328 329 334 343 342 339 335 336 343 343 343 344 347 346 348 334 329 325 323 323 322 320 316 314
317 317 316 314 313 313 315 316 315 320 324 328 330 331 332 337 332 337 340 339 336 332 341 338 340 346 340 348 348 349 351 324 321 319 320 319 314 338
312 313 313 312 311 310 312 313 313 317 321 323 329 331 332 334 337 341 338 337 339 337 338 349 338 348 344 340 343 347 348 347 350 340 313 313 312 328
310 311 313 310 308 309 311 310 311 312 313 313 317 321 325 329 334 338 341 338 340 344 349 349 343 342 343 338 336 347 348 348 350 350 351 323 311 313
312 311 310 308 308 310 310 309 309 309 307 306 307 310 313 320 325 334 338 341 341 342 343 344 344 345 344 339 339 342 341 347 348 346 348 344 343 335
311 312 311 310 310 310 311 310 308 309 305 305 304 307 310 313 313 318 326 333 330 334 342 341 340 344 341 340 341 338 339 336 342 343 344 347 348 347
307 311 310 310 309 309 309 310 309 308 307 307 305 306 303 306 308 311 314 320 324 329 335 341 343 345 347 345 336 334 333 332 338 341 343 338 341 345
309 308 308 310 309 309 309 309 310 309 308 307 303 304 304 302 303 308 310 312 315 324 331 336 337 330 337 340 336 334 336 333 333 338 342 337 336 340
309 308 307 308 308 309 309 310 309 310 312 309 307 304 302 301 302 302 305 307 308 313 318 326 325 326 325 325 339 326 337 335 337 338 339 337 336 336
310 309 308 308 307 307 307 307 308 308 309 309 307 305 304 300 299 300 301 303 304 307 312 319 325 325 320 321 326 335 317 338 336 335 334 339 339 328
310 309 310 309 308 308 307 307 308 307 308 307 305 304 304 303 303 301 298 300 303 306 309 311 315 317 323 328 323 323 331 315 327 337 339 338 335 337
311 311 311 310 309 309 308 308 307 307 306 305 305 304 304 303 302 304 300 298 303 306 308 311 313 317 319 319 316 319 326 330 324 317 319 324 336 330
311 311 310 308 308 309 309 308 307 307 306 305 305 304 303 302 302 302 304 301 302 305 308 307 309 313 314 314 311 313 321 322 325 327 333 319 317 318
Wind_Speed
5 6 6 6 7 8 7 7 7 8 9 4 5 4 5 5 6 9 10 8 12 14 15 15 16 18 18 18 19 21 20 18 15 15 16 18 19 21
6 7 6 6 6 6 6 6 7 6 7 3 4 6 6 5 5 8 9 6 10 12 12 14 16 17 18 18 17 18 19 19 18 17 15 14 16 16
8 8 9 7 5 5 6 7 8 7 9 8 6 6 11 10 10 8 8 9 7 10 9 10 12 13 15 17 17 17 18 20 20 19 19 17 15 15
10 10 11 8 10 6 5 8 8 9 7 11 11 7 11 8 8 8 7 9 9 7 11 9 9 11 13 14 15 16 17 18 19 18 19 20 19 18
10 10 11 11 10 9 9 6 7 8 7 7 10 6 7 6 5 5 4 11 10 9 11 13 13 13 14 15 16 16 16 17 17 19 19 18 19 20
10 10 10 10 11 11 9 10 9 8 8 7 8 8 7 6 4 2 3 10 9 9 10 10 10 16 17 15 15 15 16 17 17 17 18 19 19 19
11 11 11 12 12 11 8 9 10 9 8 9 9 7 8 6 7 6 10 7 9 7 9 9 7 7 9 13 12 18 17 17 17 18 18 18 18 19
11 12 12 11 15 16 16 15 11 9 11 8 10 11 12 8 7 7 7 8 9 7 9 10 10 10 10 9 14 14 18 17 18 17 18 17 17 18
11 11 11 11 12 14 17 17 13 9 9 11 12 12 13 10 8 8 8 8 9 7 6 9 7 10 9 9 13 15 17 19 19 20 20 20 19 18
12 11 11 11 12 16 15 13 13 12 10 7 7 10 12 11 9 9 9 8 9 9 6 9 8 8 7 7 11 16 17 17 18 18 18 18 19 19
11 11 12 13 21 21 12 12 13 13 9 7 9 11 12 12 12 8 9 8 10 9 8 8 11 10 10 10 9 16 17 17 17 17 17 17 16 14
11 12 14 17 20 19 12 9 11 13 15 16 14 12 11 10 9 9 10 10 10 10 8 8 10 7 7 10 11 9 8 14 14 14 14 15 14 10
10 10 10 20 18 17 15 10 12 14 13 10 11 11 9 10 8 6 9 8 11 11 7 7 7 6 7 6 6 6 10 7 8 7 10 12 16 15
10 10 10 15 12 11 14 19 18 14 8 9 10 8 9 10 10 8 10 9 10 14 11 7 7 9 8 9 10 4 7 7 7 7 6 7 9 10
9 10 11 10 10 9 13 18 16 9 9 8 8 8 9 10 12 11 11 12 10 12 11 12 9 11 9 10 9 7 6 7 7 7 7 7 7 7
11 7 8 8 5 6 9 9 9 10 8 8 9 8 10 10 9 10 10 9 7 9 12 13 12 12 10 11 7 7 7 7 7 8 8 8 8 9
10 7 8 8 9 9 9 9 8 9 9 9 6 9 8 10 8 9 9 10 8 9 9 7 10 13 11 12 8 10 6 5 7 5 8 9 10 10
7 8 9 9 9 9 10 9 9 10 9 9 8 9 8 9 10 9 8 9 9 9 10 8 6 3 7 11 14 11 10 10 7 5 9 10 10 11
5 8 8 9 9 9 9 9 10 9 10 9 9 8 8 8 10 8 9 8 9 9 9 8 5 7 9 11 7 18 12 12 10 9 11 10 12 12
5 6 7 7 8 8 9 10 9 10 10 10 10 9 8 7 8 8 8 8 8 10 8 7 6 5 6 7 9 6 18 11 11 12 12 12 12 7
5 5 5 5 6 7 8 8 9 9 9 10 10 10 10 8 8 6 8 13 12 9 7 7 8 13 6 5 6 8 11 17 15 12 12 11 12 9
7 7 5 5 6 6 7 8 9 10 9 10 10 10 10 10 10 9 7 8 8 8 7 7 8 7 5 3 5 7 8 9 11 19 21 18 11 10
7 5 4 6 7 8 8 8 9 10 10 10 10 11 11 10 10 10 9 7 8 8 7 8 8 7 5 3 4 7 12 11 10 12 12 20 22 23
Wind_Direction
267 257 246 256 256 246 240 243 237 259 255 222 256 231 257 250 250 255 249 220 212 219 218 217 217 218 219 219 213 208 207 209 210 212 211 213 219 218
317 297 278 261 250 245 241 228 224 239 258 259 246 263 280 268 254 249 252 263 212 221 223 222 220 219 216 216 216 207 204 205 208 207 208 212 218 217
332 328 317 312 280 256 239 242 237 225 245 256 248 268 261 260 271 259 260 259 243 193 207 218 222 219 219 211 210 212 209 206 207 209 207 210 211 213
326 320 313 316 305 275 244 248 245 246 239 253 260 246 255 256 275 274 277 272 262 210 195 203 217 218 216 219 217 214 209 208 207 207 211 209 209 211
333 320 311 307 299 305 293 262 257 259 249 250 265 261 256 246 242 251 269 273 258 240 211 211 210 221 219 214 218 216 217 213 209 208 207 208 210 210
340 333 320 308 301 300 304 293 280 269 250 241 248 252 263 240 222 250 229 246 257 244 230 229 212 217 222 218 216 215 215 215 216 213 212 209 210 212
336 339 338 329 299 292 306 309 303 291 273 243 246 246 250 241 239 226 229 232 241 239 248 245 229 223 224 217 228 214 211 215 214 213 215 216 214 214
339 337 338 335 350 358 350 334 311 297 295 287 268 249 256 246 248 248 256 256 255 229 240 249 243 237 223 214 210 210 204 210 212 215 216 216 222 220
346 342 340 349 352 353 337 326 311 308 279 295 290 281 270 259 256 251 249 252 256 253 227 261 235 242 229 226 197 205 207 208 214 215 212 215 217 217
0 353 347 344 352 344 332 320 311 305 305 305 291 296 294 291 270 267 269 264 260 257 252 260 224 237 220 209 209 205 212 216 213 214 215 214 214 211
2 1 355 352 349 343 334 323 317 311 308 252 262 275 276 274 262 278 252 240 251 248 241 247 258 245 241 241 230 201 209 215 215 216 216 217 214 210
9 6 7 355 347 348 349 337 331 329 322 314 303 291 267 280 221 236 251 248 247 260 231 231 248 233 248 231 234 223 214 216 220 222 220 215 192 219
5 10 1 352 349 354 353 355 338 327 335 321 313 304 295 287 280 248 243 247 255 244 253 209 269 242 237 266 215 204 220 186 203 200 216 205 189 202
10 13 3 339 338 3 10 3 0 356 353 351 344 338 339 330 316 300 267 245 240 258 274 233 252 239 226 247 243 193 210 210 217 209 194 152 175 207
358 345 340 341 347 16 19 11 14 7 3 359 345 337 330 322 318 301 283 273 255 258 251 250 245 252 252 250 246 222 214 218 233 235 206 193 186 186
346 340 331 325 339 345 360 16 15 12 3 356 347 333 331 338 334 340 323 294 266 264 227 232 235 243 242 237 241 249 220 222 214 229 232 226 214 206
314 337 345 348 348 353 355 359 1 5 5 358 345 344 344 341 339 335 324 318 289 270 265 238 226 233 239 247 225 221 219 261 264 241 225 241 233 228
311 348 347 345 344 343 340 341 346 350 354 347 351 349 346 339 337 339 335 327 322 301 281 278 257 235 241 242 236 240 223 219 223 247 237 244 242 233
337 352 347 347 343 341 340 335 332 338 326 336 339 339 332 328 339 336 332 329 328 322 320 302 298 292 240 243 237 218 244 244 212 209 213 212 237 247
339 342 344 347 345 344 342 340 333 329 330 331 330 335 332 325 329 328 326 327 325 312 305 292 277 248 257 280 291 288 215 244 244 247 242 233 237 270
309 314 321 328 334 336 339 336 335 335 324 324 328 331 330 325 319 317 314 320 315 313 322 335 335 318 287 277 240 244 259 215 245 266 263 259 258 225
277 283 297 309 315 317 323 329 330 331 330 327 328 325 324 321 316 317 312 313 317 315 333 330 315 319 310 295 315 310 282 267 230 230 238 250 251 231
262 279 300 312 311 309 310 316 321 324 324 323 321 321 320 315 316 313 307 298 295 311 323 325 321 312 300 307 322 311 305 301 282 260 262 220 228 243